CHINASAT 2C (ZX 2C) (41021 NORAD) Tracking and Keplerian Element Data

This shows tracking and keplerian element data for the satellite.

Feedback or suggestion? Click here.




ElementValue
Catalog41021
NameCHINASAT 2C (ZX 2C)
Epoch Orbit1123
Epoch Day319.86480942
Epoch Year2018
RAAN329.6109
Inclination0.0022
Eccentricity0.0002957
Argument of Perigee359.1803
Mean Anonmoly140.885
Mean Motion1.00271039
Decay Rate-3.21E-06
L11 41021U 15063A 18319.86480942 -.00000321 00000-0 00000+0 0 9992
L22 41021 0.0022 329.6109 0002957 359.1803 140.8850 1.00271039 11232

Live tracking and technical data element details for CHINASAT 2C (ZX 2C) (NORAD 41021). CHINASAT 2C (ZX 2C) can be tracked NOW for your location showing map with azimuth and elevation plus other details from your city location.

Track the satellite on the map from your city or location and see movement details for azimuth, elevation, latitude, longitude, range, height, and movement on the map or in text.







IsCatalogInMostPopularTable: catalog: 41021, numindb: 137
Update: records affected: 1



GetName: 41021 CHINASAT 2C (ZX 2C)

Hit Count: updated at: Fri, 16 Nov 2018 11:59:33 GMT